TimeCDT,TemperatureF,Dew PointF,Humidity,Sea Level PressureIn,VisibilityMPH,Wind Direction,Wind SpeedMPH,Gust SpeedMPH,PrecipitationIn,Events,Conditions,WindDirDegrees,DateUTC
12:54 AM,68.0,57.0,68,29.80,10.0,SSE,12.7,-,N/A,,Overcast,160,2013-04-09 05:54:00
1:54 AM,66.9,57.0,70,29.78,10.0,SE,12.7,-,N/A,,Mostly Cloudy,140,2013-04-09 06:54:00
2:54 AM,66.0,57.0,73,29.75,10.0,SE,12.7,-,N/A,,Mostly Cloudy,140,2013-04-09 07:54:00
3:54 AM,66.0,57.0,73,29.74,10.0,SSE,12.7,-,N/A,,Overcast,150,2013-04-09 08:54:00
4:54 AM,66.0,57.0,73,29.74,10.0,SSE,12.7,-,N/A,,Overcast,150,2013-04-09 09:54:00
5:54 AM,66.0,57.0,73,29.75,10.0,SSE,11.5,-,N/A,,Overcast,150,2013-04-09 10:54:00
6:54 AM,66.0,57.0,73,29.76,10.0,SSE,12.7,-,N/A,,Overcast,150,2013-04-09 11:54:00
7:54 AM,66.0,57.0,73,29.78,10.0,SSE,11.5,-,N/A,,Overcast,150,2013-04-09 12:54:00
8:54 AM,66.0,57.0,73,29.80,10.0,South,16.1,-,N/A,,Overcast,170,2013-04-09 13:54:00
9:54 AM,66.9,57.0,70,29.80,10.0,South,18.4,-,N/A,,Overcast,180,2013-04-09 14:54:00
10:54 AM,69.1,57.0,65,29.82,10.0,South,18.4,-,N/A,,Overcast,180,2013-04-09 15:54:00
11:54 AM,68.0,57.9,70,29.85,10.0,South,17.3,25.3,N/A,,Overcast,180,2013-04-09 16:54:00
12:54 PM,69.1,59.0,70,29.84,10.0,South,12.7,-,N/A,,Overcast,170,2013-04-09 17:54:00
1:54 PM,73.0,61.0,66,29.81,10.0,South,19.6,26.5,N/A,,Overcast,170,2013-04-09 18:54:00
2:54 PM,75.0,61.0,62,29.80,10.0,South,16.1,-,N/A,,Scattered Clouds,170,2013-04-09 19:54:00
3:54 PM,75.9,62.1,62,29.78,10.0,South,13.8,-,N/A,,Partly Cloudy,180,2013-04-09 20:54:00
4:54 PM,75.9,61.0,60,29.76,10.0,South,16.1,-,N/A,,Scattered Clouds,180,2013-04-09 21:54:00
5:54 PM,75.9,61.0,60,29.77,10.0,South,15.0,23.0,N/A,,Scattered Clouds,170,2013-04-09 22:54:00
6:54 PM,73.9,61.0,64,29.75,10.0,SSE,11.5,-,N/A,,Clear,160,2013-04-09 23:54:00
7:54 PM,72.0,61.0,68,29.78,10.0,SSE,5.8,-,N/A,,Overcast,150,2013-04-10 00:54:00
8:54 PM,73.0,61.0,66,29.78,10.0,ESE,5.8,-,N/A,,Overcast,120,2013-04-10 01:54:00
9:54 PM,72.0,61.0,68,29.78,10.0,SE,11.5,-,N/A,,Overcast,140,2013-04-10 02:54:00
10:54 PM,71.1,60.1,68,29.75,10.0,SE,10.4,-,N/A,,Scattered Clouds,140,2013-04-10 03:54:00
11:54 PM,69.1,59.0,70,29.73,10.0,SE,10.4,-,N/A,,Clear,140,2013-04-10 04:54:00